This demonstration page uses our WeatherBlox Daily Observations layout. Learn more.

Left ArrowRight Arrow

40.92501, -98.34201

Hourly Observations for September 7, 2022

Temp ( °F °C ) Dew Point ( °F °C ) Humidity (%) Winds ( mph kmh ) Pressure ( in mb ) Visibility ( mi km ) Precip ( " mm )
12:53 am 00:53 Clear 65 18.3 61 16.1 87 87 E 6 9 30.13 1020 10 16 0.00 0.00
2:53 am 02:53 Clear 68 20 62 16.7 81 81 SE 6 9 30.12 1020 10 16 0.00 0.00
3:53 am 03:53 Clear 67 19.4 62 16.7 84 84 ESE 5 7 30.13 1020 10 16 0.00 0.00
4:53 am 04:53 Clear 66 18.9 61 16.1 84 84 ESE 6 9 30.13 1020 10 16 0.00 0.00
5:53 am 05:53 Clear 64 17.8 61 16.1 90 90 ESE 5 7 30.14 1021 10 16 0.00 0.00
6:53 am 06:53 Clear 63 17.2 60 15.6 90 90 ESE 5 7 30.15 1021 10 16 0.00 0.00
7:53 am 07:53 Sunny 63 17.2 60 15.6 90 90 ESE 3 6 30.17 1022 9 14 0.00 0.00
8:53 am 08:53 Sunny 68 20 62 16.7 81 81 VRB 5 7 30.19 1022 10 16 0.00 0.00
9:53 am 09:53 Sunny 72 22.2 62 16.7 71 71 SSE 7 11 30.20 1023 10 16 0.00 0.00
10:53 am 10:53 Sunny 76 24.4 63 17.2 64 64 SE 9 15 30.20 1023 10 16 0.00 0.00
11:53 am 11:53 Sunny 81 27.2 64 17.8 57 57 SSE 8 13 30.19 1022 10 16 0.00 0.00
12:53 pm 12:53 Sunny 85 29.4 64 17.8 50 50 ESE 10 17 30.17 1022 10 16 0.00 0.00
1:53 pm 13:53 Sunny 89 31.7 62 16.7 41 41 SSE 14 22 30.14 1021 10 16 0.00 0.00
2:53 pm 14:53 Sunny 90 32.2 62 16.7 40 40 SE 14 22 30.12 1020 10 16 0.00 0.00
3:53 pm 15:53 Sunny 91 32.8 60 15.6 36 36 SSE 16 26 30.10 1019 10 16 0.00 0.00
4:53 pm 16:53 Sunny 90 32.2 61 16.1 38 38 SSE 15 24 30.08 1019 10 16 0.00 0.00
5:53 pm 17:53 Sunny 88 31.1 61 16.1 41 41 SSE 14 22 30.06 1018 10 16 0.00 0.00
6:53 pm 18:53 Sunny 85 29.4 63 17.2 48 48 SSE 12 19 30.04 1017 10 16 0.00 0.00
7:53 pm 19:53 Sunny 80 26.7 64 17.8 58 58 SSE 8 13 30.05 1018 10 16 0.00 0.00
8:53 pm 20:53 Clear 78 25.6 63 17.2 60 60 SSE 12 19 30.04 1017 10 16 0.00 0.00
9:53 pm 21:53 Clear 77 25 62 16.7 60 60 S 13 20 30.04 1017 10 16 0.00 0.00
10:53 pm 22:53 Clear 75 23.9 62 16.7 64 64 S 13 20 30.03 1017 10 16 0.00 0.00
11:53 pm 23:53 Clear 72 22.2 61 16.1 68 68 S 9 15 30.02 1017 10 16 0.00 0.00

Powered by AerisWeather